EW9501 Weather Reports


Display with metric or nautical units.
time (UTC)temp
F
wind
direction
speed
MPH
gust
MPH
rain 1hr
in
rain 24hr
in
rain mn
in
humidity
%
barometer
mb
20260504081523 51 0.0 0.0 0.00 0.00 0.00 67 1006.5
20260504050115 51 0.0 0.0 0.00 0.00 0.00 64 1009.1
20260504044558 52 0.0 0.0 0.00 0.00 0.00 65 1009.1
20260504043107 51 0.0 0.0 0.00 0.00 0.00 66 1009.2
20260504041553 51 0.0 0.0 0.00 0.00 0.00 67 1009.3
20260504040055 51 0.0 0.0 0.00 0.00 0.00 68 1009.4
20260504034549 51 0.0 0.0 0.00 0.00 0.00 68 1009.7
20260504033055 50 0.0 0.0 0.00 0.00 0.00 69 1009.8
20260504031557 49 0.0 0.0 0.00 0.00 0.00 72 1010.0
20260504030048 49 0.0 0.0 0.00 0.00 0.00 73 1010.1
20260504024547 49 0.0 0.0 0.00 0.00 0.00 72 1010.4
20260504023044 50 0.0 0.0 0.00 0.00 0.00 71 1010.5
20260504021544 51 0.0 0.0 0.00 0.00 0.00 69 1010.5
20260504020045 51 0.0 0.0 0.00 0.00 0.00 68 1010.6
20260504014554 51 0.0 0.0 0.00 0.00 0.00 66 1010.6
20260504013046 52 0.0 0.0 0.00 0.00 0.00 66 1010.6
20260504011542 52 0.0 0.0 0.00 0.00 0.00 65 1010.6
20260504010041 52 0.0 0.0 0.00 0.00 0.00 64 1010.8
20260504004541 53 0.0 0.0 0.00 0.00 0.00 63 1010.8
20260504003042 53 0.0 0.0 0.00 0.00 0.00 63 1010.8
20260504001548 53 0.0 0.0 0.00 0.00 0.00 61 1011.1
20260504000044 54 0.0 0.0 0.00 0.00 0.00 60 1011.0
20260503234539 54 0.0 0.0 0.00 0.00 0.00 59 1011.0
20260503233042 56 0.0 0.0 0.00 0.00 0.00 57 1010.9
20260503231542 58 0.0 0.0 0.00 0.00 0.00 54 1010.8
20260503230037 60 0.0 0.0 0.00 0.00 0.00 38 1010.4
20260503224540 61 0.0 0.0 0.00 0.00 0.00 38 1010.4
20260503223035 61 0.0 0.0 0.00 0.00 0.00 38 1010.5
20260503221542 61 0.0 0.0 0.00 0.00 0.00 38 1010.5
20260503220034 62 0.0 0.0 0.00 0.00 0.00 36 1010.5
20260503214534 61 0.0 0.0 0.00 0.00 0.00 37 1010.5
20260503213034 61 0.0 0.0 0.00 0.00 0.00 35 1010.7
20260503211530 62 0.0 0.0 0.00 0.00 0.00 35 1010.7
20260503210043 62 0.0 0.0 0.00 0.00 0.00 36 1010.8
20260503204528 62 0.0 0.0 0.00 0.00 0.00 35 1010.9
20260503203029 63 0.0 0.0 0.00 0.00 0.00 34 1011.0
20260503201533 63 0.0 0.0 0.00 0.00 0.00 35 1011.3
20260503200026 64 0.0 0.0 0.00 0.00 0.00 36 1011.3
20260503194524 63 0.0 0.0 0.00 0.00 0.00 36 1011.5
20260503193023 64 0.0 0.0 0.00 0.00 0.00 35 1011.7
20260503191521 64 0.0 0.0 0.00 0.00 0.00 34 1011.9
20260503190020 64 0.0 0.0 0.00 0.00 0.00 33 1012.2
20260503184524 63 0.0 0.0 0.00 0.00 0.00 34 1012.5
20260503183022 63 0.0 0.0 0.00 0.00 0.00 35 1012.6
20260503181516 63 0.0 0.0 0.00 0.00 0.00 36 1012.7
20260503180015 62 0.0 0.0 0.00 0.00 0.00 37 1012.9
20260503174512 63 0.0 0.0 0.00 0.00 0.00 34 1013.0
20260503173011 62 0.0 0.0 0.00 0.00 0.00 35 1013.2
20260503171508 62 0.0 0.0 0.00 0.00 0.00 36 1013.5